Regional Weather Roundup
Issued by NWS Jackson, KY

Home | Current Version | Previous Version | Text Only | Print | Product List | Glossary Off
Versions: 1 2 3 4 5 6 7 8 9 10 11 12 13 14 15 16 17 18 19 20 21 22 23 24 25 26 27 28 29 30 31 32 33 34 35 36 37 38 39 40 41 42 43 44 45 46 47 48 49 50

000
ASUS43 KJKL 250810
RWRJKL

EAST KENTUCKY HOURLY WEATHER ROUNDUP
NATIONAL WEATHER SERVICE JACKSON KY
400 AM EDT SUN SEP 25 2016

NOTE: "FAIR" INDICATES FEW OR NO CLOUDS BELOW 12,000 FEET WITH
NO SIGNIFICANT WEATHER AND/OR OBSTRUCTIONS TO VISIBILITY.

* THESE REPORTS ARE NOT UNDER NWS QUALITY CONTROL AND MAY NOT
  REPORT WEATHER SUCH AS PRECIPITATION AND FOG.

KYZ079-080-083-085-087-088-110-112-115-119-120-250900
...EASTERN KENTUCKY...

CITY           SKY/WX    TMP DP  RH WIND       PRES   REMARKS
JACKSON        CLEAR     68  63  84 CALM      30.13S
LONDON         CLEAR     65  62  90 CALM      30.11F FOG
SOMERSET*      PTCLDY    63  63 100 CALM      30.11S
MONTICELLO*    PTCLDY    61  61 100 N8        30.12S FOG
WILLIAMSBURG*  SUNNY     63  63 100 CALM      30.11F
MIDDLESBORO*   PTCLDY    62  62 100 CALM      30.13F
HARLAN APT*    MOSUNNY   63  61  94 CALM      30.14S
PIKE CO APT*     N/A     66  66 100 N5        30.13S
MOREHEAD APT*  CLOUDY    68  61  77 E3        30.14S
ASHLAND*       CLEAR     64  61  88 CALM      30.11S
$$

KYZ035-036-041-042-044-050-067-078-099-250900
...CENTRAL KENTUCKY...

CITY           SKY/WX    TMP DP  RH WIND       PRES   REMARKS
MT STERLING*   CLEAR     68  64  88 CALM      30.14S
FLEMING/MASON* CLEAR     65  62  90 E3        30.14F
DANVILLE*      CLEAR     64  63  94 CALM      30.12S
LEXINGTON      CLEAR     69  63  81 NE6       30.12S
FRANKFORT      CLEAR     68  63  84 CALM      30.11S
LOUISVILLE     CLEAR     73  67  81 N3        30.09F
LEBANON*         N/A     68  66  94 CALM      30.11S
GLASGOW*       CLEAR    N/A N/A N/A CALM      30.09S FOG
BOWLING GREEN  PTCLDY    68  66  93 CALM      30.08F FOG
$$

KYZ091>093-OHZ055-061-077-WVZ005-015-034-035-042-250900
...SOUTHERN OHIO/WEST VIRGINIA...

CITY           SKY/WX    TMP DP  RH WIND       PRES   REMARKS
COVINGTON      CLEAR     68  63  84 NE8       30.13F
COLUMBUS       CLEAR     58  53  84 NE3       30.17F
DAYTON         CLEAR     58  54  86 E6        30.17F
WILMINGTON     CLEAR     60  56  86 NE8       30.15F
HUNTINGTON     CLEAR     66  61  84 NE3       30.12S
CHARLESTON     CLEAR     64  62  93 CALM      30.12S
PINEVILLE*     CLEAR     62  59  90 MISG      30.20R FOG
BECKLEY        CLEAR     62  60  93 CALM      30.18S
BLUEFIELD      CLEAR     63  59  87 CALM      30.20S
LOGAN CO APT*    N/A     68  64  88 CALM      30.13S
$$

VAZ002-007-008-TNZ017-027-036-066-071-250900
...SOUTHWEST VIRGINIA/EAST TENNESSEE...

CITY           SKY/WX    TMP DP  RH WIND       PRES   REMARKS
WISE*          CLEAR     64  61  88 CALM      30.20S
JONESVILLE*    PTSUNNY   61  59  94 CALM      30.15S
ABINGDON*      CLEAR     66  62  86 E3        30.16S
BRISTOL        CLEAR     62  60  93 CALM      30.13S
MORRISTOWN*    SUNNY     68  64  88 E5        30.10S
SEVIERVILLE*   SUNNY     63  61  94 CALM      30.09S
KNOXVILLE      CLEAR     68  63  84 CALM      30.07F
OAK RIDGE      CLEAR     68  65  90 CALM      30.10S
CROSSVILLE     CLEAR     63  61  93 CALM      30.14S
NASHVILLE      CLEAR     68  65  90 CALM      30.08S
$$

...KEY TO REMARKS...
VSB - VISIBILITY IN MILES
WCI - WIND CHILL INDEX
HX  - HEAT INDEX

$$



USA.gov is the U.S. government's official web portal to all federal, state and local government web resources and services.